Weather History for KNBC - September, 2013

Change the Weather History Date:

Thursday, September 26, 2013

  Actual Average Record
Temperature  
Mean Temperature 70 °F -  
Max Temperature 75 °F 83 °F 94 °F (1931)
Min Temperature 64 °F 66 °F 52 °F (1956)
Cooling Degree Days 4    
Growing Degree Days 20 (Base 50)    
Moisture  
Dew Point 65 °F    
Average Humidity 87    
Maximum Humidity 93    
Minimum Humidity 71    
Precipitation  
Precipitation 0.00 in - - ()
Sea Level Pressure  
Sea Level Pressure 29.87 in    
Wind  
Wind Speed 9 mph (NNE)    
Max Wind Speed 15 mph    
Max Gust Speed -    
Visibility 8 miles    
Events Rain    
Averages and records for this station are not official NWS values.
T = Trace of Precipitation, MM = Missing Value Source: NWS Daily Summary

Daily Weather History Graph

Daily Weather History Graph

Search for Another Location

Airport or City:

Trip Planner

Search our weather history database for the weather conditions in past years. The results will help you decide how hot, cold, wet, or windy it might be!

Date:

Astronomy

Sep. 26, 2013 Rise Set
Actual Time 7:13 AM EDT 7:13 PM EDT
Civil Twilight 6:49 AM EDT 7:38 PM EDT
Nautical Twilight 6:20 AM EDT 8:06 PM EDT
Astronomical Twilight 5:52 AM EDT 8:35 PM EDT
Moon No Moon Rise 1:48 PM EDT (9/26)
Length of Visible Light 12h 49m
Length of Day
12h 00m
Waning Gibbous, 55% of the Moon is Illuminated
Sep 26
Waning Gibbous
Sep 26
Last Quarter
Oct 4
New
Oct 11
First Quarter
Oct 18
Full

Hourly Weather History & Observations

Time (EDT) Temp. Dew Point Humidity Pressure Visibility Wind Dir Wind Speed Gust Speed Precip Events Conditions
12:04 AM 71.1 °F 68.0 °F 90% 29.83 in 8.0 mi North 6.9 mph - 0.00 in Rain Light Rain
12:29 AM 70.0 °F 68.0 °F 93% 29.83 in 2.5 mi North 9.2 mph - N/A Rain Heavy Rain
12:41 AM 70.0 °F 68.0 °F 93% 29.83 in 5.0 mi NNW 6.9 mph - N/A Rain Light Rain
12:56 AM 69.1 °F 66.9 °F 93% 29.83 in 9.0 mi North 6.9 mph - N/A Rain Light Rain
1:03 AM 70.0 °F 66.9 °F 90% 29.82 in 10.0 mi NNE 6.9 mph - N/A   Overcast
1:45 AM 68.0 °F 66.0 °F 93% 29.81 in 10.0 mi NNE 10.4 mph - N/A Rain Light Rain
1:56 AM 68.0 °F 66.0 °F 93% 29.82 in 10.0 mi NNE 8.1 mph - N/A   Overcast
2:03 AM 68.0 °F 66.0 °F 93% 29.81 in 10.0 mi NNE 10.4 mph - N/A   Overcast
2:56 AM 68.0 °F 66.0 °F 93% 29.81 in 9.0 mi NNE 10.4 mph - N/A Rain Light Rain
3:21 AM 68.0 °F 66.0 °F 93% 29.80 in 9.0 mi NNE 9.2 mph - N/A Rain Light Rain
3:28 AM 68.0 °F 64.9 °F 90% 29.80 in 9.0 mi NNE 10.4 mph - N/A Rain Light Rain
3:56 AM 66.9 °F 64.9 °F 93% 29.80 in 10.0 mi NNE 9.2 mph - N/A   Overcast
4:27 AM 66.9 °F 64.9 °F 93% 29.80 in 10.0 mi NNE 12.7 mph - N/A   Overcast
4:56 AM 66.9 °F 64.9 °F 93% 29.81 in 10.0 mi NE 11.5 mph - N/A   Overcast
5:56 AM 66.9 °F 64.9 °F 93% 29.82 in 10.0 mi NNE 11.5 mph - N/A   Overcast
6:56 AM 66.9 °F 64.9 °F 93% 29.84 in 6.0 mi NNE 11.5 mph - N/A   Overcast
7:04 AM 66.9 °F 64.9 °F 93% 29.84 in 7.0 mi NNE 11.5 mph - N/A   Overcast
7:36 AM 66.0 °F 64.0 °F 93% 29.85 in 6.0 mi NNE 15.0 mph - 0.00 in   Overcast
7:56 AM 66.0 °F 64.0 °F 93% 29.85 in 4.0 mi NNE 12.7 mph - 0.00 in Rain Light Rain
8:17 AM 66.0 °F 64.0 °F 93% 29.86 in 9.0 mi NNE 13.8 mph - 0.00 in   Overcast
8:56 AM 66.0 °F 63.0 °F 90% 29.87 in 4.0 mi NE 11.5 mph - 0.00 in Rain Light Rain
9:56 AM 64.9 °F 63.0 °F 93% 29.90 in 6.0 mi NNE 9.2 mph - 0.00 in Rain Light Rain
10:19 AM 66.0 °F 63.0 °F 90% 29.90 in 6.0 mi NNE 8.1 mph - 0.00 in Rain Light Rain
10:56 AM 68.0 °F 64.0 °F 87% 29.90 in 6.0 mi NE 12.7 mph - 0.00 in   Mostly Cloudy
11:19 AM 70.0 °F 64.0 °F 81% 29.90 in 10.0 mi NE 9.2 mph - N/A   Mostly Cloudy
11:56 AM 71.1 °F 64.0 °F 78% 29.90 in 10.0 mi NNE 8.1 mph - N/A   Overcast
12:35 PM 72.0 °F 64.0 °F 76% 29.90 in 10.0 mi NNE 9.2 mph - N/A   Overcast
12:56 PM 73.0 °F 64.9 °F 76% 29.89 in 10.0 mi NNE 11.5 mph - N/A   Overcast
1:56 PM 75.0 °F 64.9 °F 71% 29.88 in 10.0 mi NNE 10.4 mph - N/A   Overcast
2:56 PM 72.0 °F 64.9 °F 78% 29.88 in 10.0 mi North 13.8 mph - N/A   Overcast
3:09 PM 70.0 °F 64.0 °F 81% 29.89 in 10.0 mi North 13.8 mph - N/A   Overcast
3:56 PM 69.1 °F 64.9 °F 87% 29.90 in 8.0 mi North 4.6 mph - 0.00 in Rain Light Rain
4:56 PM 71.1 °F 64.9 °F 81% 29.91 in 10.0 mi North 10.4 mph - 0.00 in   Overcast
5:56 PM 71.1 °F 63.0 °F 75% 29.91 in 10.0 mi NNE 8.1 mph - N/A   Overcast
6:03 PM 71.1 °F 63.0 °F 75% 29.91 in 10.0 mi NNE 9.2 mph - N/A   Overcast
6:56 PM 71.1 °F 63.0 °F 75% 29.92 in 10.0 mi North 5.8 mph - N/A   Overcast
7:56 PM 71.1 °F 64.0 °F 78% 29.93 in 10.0 mi North 3.5 mph - N/A   Overcast
8:56 PM 70.0 °F 64.0 °F 81% 29.94 in 10.0 mi North 4.6 mph - N/A   Mostly Cloudy
9:56 PM 69.1 °F 64.0 °F 84% 29.95 in 10.0 mi North 5.8 mph - N/A   Clear
10:56 PM 66.9 °F 63.0 °F 87% 29.96 in 9.0 mi North 5.8 mph - N/A   Clear
11:56 PM 64.0 °F 61.0 °F 90% 29.96 in 8.0 mi North 3.5 mph - N/A   Clear